Weather History for Ainsworth, NE

Change the Weather History Date:

Thursday, May 30, 2013

  Actual Average Record
Temperature  
Mean Temperature 64 °F -  
Max Temperature 73 °F 70 °F 90 °F (2014)
Min Temperature 55 °F 48 °F 43 °F (2012)
Degree Days  
Heating Degree Days 2    
Growing Degree Days 14 (Base 50)    
Moisture  
Dew Point 50 °F    
Average Humidity 67    
Maximum Humidity 94    
Minimum Humidity 39    
Precipitation  
Precipitation 0.14 in - - ()
Sea Level Pressure  
Sea Level Pressure 29.49 in    
Wind  
Wind Speed 11 mph (SW)    
Max Wind Speed 26 mph    
Max Gust Speed 36 mph    
Visibility 10 miles    
Events Rain , Thunderstorm    
Averages and records for this station are not official NWS values.
T = Trace of Precipitation, MM = Missing Value Source: NWS Daily Summary

Daily Weather History Graph

Daily Weather History Graph

Search for Another Location

Airport:

Trip Planner

Search our weather history database for the weather conditions in past years. The results will help you decide how hot, cold, wet, or windy it might be!

Date:

Astronomy

May. 30, 2013 Rise Set
Actual Time 6:05 AM CDT 9:09 PM CDT
Civil Twilight 5:31 AM CDT 9:43 PM CDT
Nautical Twilight 4:48 AM CDT 10:27 PM CDT
Astronomical Twilight 3:57 AM CDT 11:18 PM CDT
Moon 1:06 AM CDT (5/30) 12:21 PM CDT (5/30)
Length of Visible Light 16h 11m
Length of Day
15h 03m
Waning Gibbous, 62% of the Moon is Illuminated
May 30
Waning Gibbous
May 31
Last Quarter
Jun 8
New
Jun 16
First Quarter
Jun 23
Full

Hourly Weather History & Observations

Time (CDT) Temp. Dew Point Humidity Pressure Visibility Wind Dir Wind Speed Gust Speed Precip Events Conditions
12:15 AM 57.9 °F 53.4 °F 85% 29.52 in 10.0 mi Calm Calm - N/A   Mostly Cloudy
12:35 AM 56.5 °F 53.6 °F 90% 29.51 in 10.0 mi South 5.8 mph - N/A   Mostly Cloudy
12:55 AM 55.8 °F 53.6 °F 92% 29.48 in 10.0 mi South 5.8 mph - N/A   Scattered Clouds
1:15 AM 55.6 °F 53.4 °F 92% 29.47 in 10.0 mi WSW 8.1 mph - N/A   Clear
1:35 AM 56.3 °F 53.4 °F 90% 29.49 in 10.0 mi SW 8.1 mph - N/A   Scattered Clouds
1:55 AM 57.2 °F 53.6 °F 88% 29.49 in 10.0 mi SW 5.8 mph - N/A   Mostly Cloudy
2:15 AM 57.7 °F 54.0 °F 87% 29.50 in 10.0 mi SSW 8.1 mph - N/A   Overcast
2:35 AM 57.9 °F 54.1 °F 87% 29.48 in 10.0 mi South 3.5 mph - N/A   Overcast
2:55 AM 57.0 °F 54.0 °F 89% 29.48 in 10.0 mi SSE 4.6 mph - N/A   Mostly Cloudy
3:15 AM 55.6 °F 53.2 °F 92% 29.47 in 10.0 mi South 6.9 mph - N/A   Scattered Clouds
3:35 AM 55.9 °F 53.8 °F 92% 29.46 in 10.0 mi South 5.8 mph - N/A   Scattered Clouds
3:55 AM 55.8 °F 54.0 °F 94% 29.46 in 10.0 mi South 8.1 mph - N/A   Scattered Clouds
4:15 AM 56.7 °F 54.7 °F 93% 29.46 in 10.0 mi South 8.1 mph - N/A   Mostly Cloudy
4:35 AM 55.9 °F 53.8 °F 92% 29.46 in 10.0 mi South 6.9 mph - N/A   Scattered Clouds
4:55 AM 55.9 °F 54.0 °F 93% 29.44 in 10.0 mi SSW 8.1 mph - N/A   Clear
5:15 AM 56.3 °F 54.1 °F 92% 29.44 in 10.0 mi SSW 5.8 mph - N/A   Clear
5:35 AM 55.9 °F 53.6 °F 92% 29.45 in 10.0 mi SSW 6.9 mph - N/A   Clear
5:55 AM 55.9 °F 53.6 °F 92% 29.46 in 10.0 mi SSW 6.9 mph - N/A   Clear
6:15 AM 55.2 °F 52.5 °F 91% 29.46 in 10.0 mi SSW 8.1 mph - N/A   Clear
6:35 AM 55.4 °F 52.2 °F 89% 29.46 in 10.0 mi SW 8.1 mph - N/A   Clear
6:55 AM 55.4 °F 51.4 °F 87% 29.47 in 10.0 mi SW 9.2 mph - N/A   Clear
7:15 AM 56.3 °F 50.9 °F 82% 29.48 in 10.0 mi SW 11.5 mph - N/A   Clear
7:35 AM 57.4 °F 50.7 °F 78% 29.48 in 10.0 mi SW 13.8 mph 17.3 mph N/A   Clear
7:55 AM 58.5 °F 50.2 °F 74% 29.48 in 10.0 mi SW 13.8 mph - N/A   Clear
8:15 AM 59.5 °F 50.4 °F 72% 29.47 in 10.0 mi WSW 15.0 mph 19.6 mph N/A   Clear
8:35 AM 60.4 °F 50.7 °F 70% 29.47 in 10.0 mi WSW 16.1 mph 20.7 mph N/A   Clear
8:55 AM 61.7 °F 51.1 °F 68% 29.47 in 10.0 mi WSW 15.0 mph - N/A   Clear
9:15 AM 62.8 °F 51.3 °F 66% 29.47 in 10.0 mi SW 15.0 mph 18.4 mph N/A   Clear
9:35 AM 64.0 °F 52.0 °F 65% 29.47 in 10.0 mi WSW 16.1 mph - N/A   Clear
9:55 AM 64.6 °F 51.3 °F 62% 29.47 in 10.0 mi WSW 15.0 mph 21.9 mph N/A   Clear
10:15 AM 64.9 °F 51.4 °F 62% 29.48 in 10.0 mi WSW 16.1 mph 20.7 mph N/A   Clear
10:35 AM 66.2 °F 51.4 °F 59% 29.47 in 10.0 mi WSW 18.4 mph - N/A   Scattered Clouds
10:55 AM 66.9 °F 50.4 °F 55% 29.48 in 10.0 mi WSW 18.4 mph 23.0 mph N/A   Scattered Clouds
11:15 AM 68.0 °F 49.8 °F 52% 29.47 in 10.0 mi WSW 18.4 mph 24.2 mph N/A   Scattered Clouds
11:35 AM 68.5 °F 49.6 °F 51% 29.48 in 10.0 mi WSW 19.6 mph 23.0 mph N/A   Clear
11:55 AM 69.4 °F 48.7 °F 48% 29.48 in 10.0 mi WSW 20.7 mph - N/A   Scattered Clouds
12:15 PM 69.4 °F 50.0 °F 50% 29.48 in 10.0 mi WSW 17.3 mph 23.0 mph N/A   Scattered Clouds
12:35 PM 70.7 °F 49.3 °F 47% 29.48 in 10.0 mi WSW 21.9 mph 27.6 mph N/A   Scattered Clouds
12:55 PM 71.2 °F 47.8 °F 43% 29.48 in 10.0 mi WSW 19.6 mph 25.3 mph N/A   Scattered Clouds
1:15 PM 71.2 °F 46.6 °F 41% 29.47 in 10.0 mi West 20.7 mph 27.6 mph N/A   Scattered Clouds
1:35 PM 71.6 °F 46.9 °F 41% 29.47 in 10.0 mi WSW 24.2 mph 28.8 mph N/A   Scattered Clouds
1:55 PM 70.3 °F 46.2 °F 42% 29.47 in 10.0 mi WSW 20.7 mph 26.5 mph N/A   Mostly Cloudy
2:15 PM 70.7 °F 46.4 °F 42% 29.47 in 10.0 mi West 18.4 mph 26.5 mph N/A   Mostly Cloudy
2:35 PM 71.8 °F 45.9 °F 39% 29.48 in 10.0 mi WSW 21.9 mph 27.6 mph N/A   Scattered Clouds
2:55 PM 72.9 °F 46.6 °F 39% 29.48 in 10.0 mi West 23.0 mph 28.8 mph N/A   Mostly Cloudy
3:15 PM 71.4 °F 45.1 °F 39% 29.48 in 10.0 mi WSW 16.1 mph 26.5 mph N/A   Mostly Cloudy
3:35 PM 72.1 °F 46.2 °F 40% 29.48 in 10.0 mi West 19.6 mph 23.0 mph N/A   Mostly Cloudy
3:55 PM 68.9 °F 47.7 °F 47% 29.49 in 10.0 mi WSW 17.3 mph 27.6 mph N/A Rain Light Rain
4:15 PM 64.6 °F 49.5 °F 58% 29.48 in 10.0 mi SSW 11.5 mph 18.4 mph N/A   Mostly Cloudy
4:35 PM 67.3 °F 50.9 °F 56% 29.48 in 10.0 mi SSW 12.7 mph - N/A Rain Light Rain
4:55 PM 66.9 °F 50.7 °F 56% 29.48 in 10.0 mi SSW 9.2 mph - N/A Thunderstorm Thunderstorm
5:15 PM 64.0 °F 48.2 °F 56% 29.49 in 10.0 mi SSW 13.8 mph - N/A Rain Light Rain
5:35 PM 64.0 °F 49.8 °F 60% 29.49 in 10.0 mi SW 11.5 mph - N/A Thunderstorm Mostly Cloudy
5:55 PM 59.5 °F 49.6 °F 70% 29.52 in 7.0 mi West 11.5 mph - 0.05 in Rain , Thunderstorm Light Thunderstorms and Rain
6:15 PM 60.4 °F 51.3 °F 72% 29.51 in 10.0 mi WSW 6.9 mph - 0.02 in Thunderstorm Thunderstorm
6:35 PM 58.5 °F 50.4 °F 74% 29.54 in 7.0 mi SW 11.5 mph 25.3 mph 0.09 in Rain , Thunderstorm Light Thunderstorms and Rain
6:55 PM 59.4 °F 49.3 °F 69% 29.51 in 10.0 mi WSW 10.4 mph - 0.09 in Rain , Thunderstorm Light Thunderstorms and Rain
7:15 PM 60.1 °F 50.7 °F 71% 29.50 in 10.0 mi WSW 9.2 mph - N/A Rain Light Rain
7:35 PM 61.7 °F 51.6 °F 69% 29.51 in 10.0 mi WSW 11.5 mph - N/A   Scattered Clouds
7:55 PM 62.8 °F 47.5 °F 57% 29.51 in 10.0 mi West 17.3 mph - N/A   Clear
8:15 PM 60.8 °F 47.1 °F 61% 29.53 in 10.0 mi WSW 10.4 mph 15.0 mph N/A   Clear
8:35 PM 60.1 °F 44.8 °F 57% 29.53 in 10.0 mi West 23.0 mph 28.8 mph N/A   Clear
8:55 PM 59.2 °F 43.2 °F 55% 29.53 in 10.0 mi WSW 21.9 mph 34.5 mph N/A   Clear
9:15 PM 58.6 °F 43.3 °F 57% 29.53 in 10.0 mi WSW 18.4 mph 33.4 mph N/A   Clear
9:35 PM 58.1 °F 43.3 °F 58% 29.53 in 10.0 mi WSW 21.9 mph 33.4 mph N/A   Clear
9:55 PM 58.3 °F 42.3 °F 55% 29.53 in 10.0 mi WSW 26.5 mph 35.7 mph N/A   Clear
10:15 PM 57.4 °F 42.6 °F 58% 29.53 in 10.0 mi West 26.5 mph 31.1 mph N/A   Clear
10:35 PM 57.6 °F 42.8 °F 58% 29.54 in 10.0 mi WSW 24.2 mph 34.5 mph N/A   Clear
10:55 PM 57.4 °F 42.8 °F 58% 29.54 in 10.0 mi West 25.3 mph 32.2 mph N/A   Clear
11:15 PM 57.0 °F 42.4 °F 58% 29.55 in 10.0 mi West 26.5 mph 33.4 mph N/A   Clear
11:35 PM 56.7 °F 42.4 °F 59% 29.55 in 10.0 mi West 25.3 mph 34.5 mph N/A   Clear
11:55 PM 56.3 °F 42.6 °F 60% 29.56 in 10.0 mi West 26.5 mph 33.4 mph N/A   Clear